Regional Weather Roundup
Issued by NWS Boston, MA

Home | Current Version | Previous Version | Text Only | Print | Product List | Glossary On
Versions: 1 2 3 4 5 6 7 8 9 10 11 12 13 14 15 16 17 18 19 20 21 22 23 24 25 26 27 28 29 30 31 32 33 34 35 36 37 38 39 40 41 42 43 44 45 46 47 48 49 50
612
ASUS41 KBOX 042110
RWRBOX

REGIONAL WEATHER ROUNDUP
NATIONAL WEATHER SERVICE TAUNTON MA
400 PM EST SUN DEC 04 2016

NOTE:  "FAIR" INDICATES FEW OR NO CLOUDS BELOW 12,000 FEET WITH NO
SIGNIFICANT WEATHER AND/OR OBSTRUCTIONS TO VISIBILITY.

MAZALL-042200-
EASTERN MASSACHUSETTS

CITY           SKY/WX    TMP DP  RH WIND       PRES   REMARKS
BOSTON         PTCLDY    40  19  43 NW9       30.18R
BEVERLY        CLEAR     38  20  48 NW10      30.17R WCI  31
LAWRENCE       CLEAR     39  19  44 NW5       30.18R
BEDFORD        CLEAR     37  17  44 NW5       30.17R
BLUE HILL        N/A     36  17  46 NW8       30.14R WCI  30
NORWOOD        CLEAR     41  18  39 NW5       30.17R
MARSHFIELD     CLEAR     39  19  45 VRB5      30.17R
PLYMOUTH       CLEAR     38  19  46 NW5       30.17R
TAUNTON        CLEAR     40  18  41 NW5       30.17S
NEW BEDFORD    CLEAR     41  20  43 VRB3      30.16S
$$

MAZALL-042200-
CAPE COD AND THE ISLANDS

CITY           SKY/WX    TMP DP  RH WIND       PRES   REMARKS
FALMOUTH       CLEAR     37  19  48 MISG      30.17R
HYANNIS        CLEAR     38  23  55 NW6       30.15S
CHATHAM        CLEAR     38  25  59 VRB6      30.17R
PROVINCETOWN   CLEAR     39  23  52 NW12      30.17S WCI  32
NANTUCKET      CLEAR     37  23  56 N10       30.16S WCI  30
MARTHAS VNYRD  CLEAR     37  21  52 N6        30.17S
$$

MAZALL-042200-
CENTRAL AND WESTERN MASSACHUSETTS

CITY           SKY/WX    TMP DP  RH WIND       PRES   REMARKS
WORCESTER      CLEAR     35  17  47 N8        30.14S WCI  29
FITCHBURG      CLEAR     38  19  46 NW10      30.18R WCI  31
ORANGE         CLEAR     36  20  52 N8        30.17S WCI  30
SPRINGFIELD    PTCLDY    39  20  47 NW7       30.16F
WESTFIELD      CLEAR     38  21  50 NW6       30.17F
NORTH ADAMS    CLEAR     31  19  61 W6        30.19F WCI  25
PITTSFIELD     CLEAR     30  18  60 NW7       30.14F WCI  23
$$

RIZALL-042200-
RHODE ISLAND

CITY           SKY/WX    TMP DP  RH WIND       PRES   REMARKS
PROVIDENCE     PTCLDY    40  19  43 N10       30.18R
NEWPORT        CLEAR     38  23  55 N5        30.16S
BLOCK ISLAND   CLEAR     39  22  50 NW3       30.18R
SMITHFIELD     CLEAR     37  20  50 NW6       30.16S
WESTERLY       CLEAR     41  19  41 N5        30.18R
$$

CTZALL-042200-
CONNECTICUT

CITY           SKY/WX    TMP DP  RH WIND       PRES   REMARKS
BRADLEY INTL   PTCLDY    39  19  44 N7        30.18S
HARTFORD       CLEAR     40  20  44 N8        30.19R
BRIDGEPORT     CLEAR     42  20  41 N8        30.20R
DANBURY        CLEAR     37  20  50 N5        30.20R
GROTON         CLEAR     43  21  41 N6        30.18R
NEW HAVEN      CLEAR     40  20  44 VRB5      30.20R
CHESTER        FAIR      39  19  45 NW6       30.18R
MERIDEN        CLEAR     41  20  43 NW9       30.19R
WILLIMANTIC    CLEAR     41  21  44 NW5       30.18S
OXFORD         PTCLDY    37  18  44 MISG      30.19R
$$

MEZ002-015-021-024-NHZ003-005-008-011-012-014-VTZ005-008-042200-
NORTHERN NEW ENGLAND

CITY           SKY/WX    TMP DP  RH WIND       PRES   REMARKS
PORTLAND ME    PTCLDY    36  16  44 NW10      30.16R WCI  28
BANGOR ME      PTCLDY    29  18  63 NW10      30.14R WCI  20
CONCORD NH     CLEAR     36  19  50 NW13      30.18R WCI  27
MANCHESTER NH  CLEAR     38  18  44 NW9       30.17R WCI  31
NASHUA NH      CLEAR     38  20  48 NW9       30.19R WCI  31
PORTSMOUTH NH  PTCLDY    38  17  43 NW15      30.15R WCI  29
JAFFREY NH     CLEAR     34  18  52 NW3       30.16R
KEENE NH       CLEAR     34  20  56 N12       30.19S WCI  25
BURLINGTON VT  MOCLDY    34  21  59 N6        30.23S WCI  29
MT. WASHINGTON MOCLDY    10  -2  56 NW32G39     N/A  WCI -12
$$

NYZ052-076-042200-
EASTERN NEW YORK

CITY           SKY/WX    TMP DP  RH WIND       PRES   REMARKS
ALBANY         PTCLDY    33  20  58 NW5       30.23F WCI  29
NEW YORK CITY  MOCLDY    46  22  38 NW7       30.19S
$$

ANZALL-042200-
MARINE OBSERVATIONS

STATION/POSITION TIME  TEMP    WIND        PRES    VSBY  WAVE
                       AIR SEA DIR/SP/G                  HT/PER
                 (UTC) (F)     (DEG/KT/KT) (MB)    (MI)  (FT/S)
BOSTON BUOY      2050   42 50  300/ 12/ 16 1020.2R         3/ 7
BUZZARDS BAY     2000   39     310/  9/ 11 1022.1R
NANTUCKET SOUND  NOT AVBL
MASS BAY-STELLWA 2004   42 50  320/ 12/ 16 1020.3S  1 7/8  2/ 6
ISLE OF SHOALS   2000   40     300/ 15/ 17 1020.5R
S OF BLOCK IS    2055      55                N/A           2/ 3
$$

......................KEY.........................
  SKY/WX - SKY CONDITION/PRESENT WEATHER
  TMP    - TEMPERATURE IN FAHRENHEIT
  DWPT   - DEWPOINT IN FAHRENHEIT
  RH     - RELATIVE HUMIDITY IN PERCENT
  WIND   - DIRECTION AND SPEED IN MPH
  PRES   - MEAN SEA LEVEL PRESSURE IN INCHES OF HG
  WCI    - WIND CHILL INDEX
  VSB    - VISIBILITY IN MILES
  HX     - HEAT INDEX
  TC     - TEMPERATURE IN CELSIUS
  VRB    - VARIABLE WIND DIRECTION
  N/A    - NOT AVAILABLE




USA.gov is the U.S. government's official web portal to all federal, state and local government web resources and services.